[ hide orbit diagram ]
For accurate long-term ephemerides, please instead use our Horizons system.This orbit viewer was implemented using two-body methods, and hence should not be used for determining accurate long-term trajectories (over several years or decades) or planetary encounter circumstances.
Orbital Elements at Epoch 2459200.5 (2020-Dec-17.0) TDB
Reference: JPL 18 (heliocentric ecliptic J2000)
Element | Value | Uncertainty (1-sigma) | Units |
e | .1042845657750989 | 3.5011e-08 | |
a | 2.275401880708502 | 9.253e-09 | au |
q | 2.038112583614973 | 7.8893e-08 | au |
i | 6.335342143346018 | 4.6456e-06 | deg |
node | 5.880082116922495 | 3.4684e-05 | deg |
peri | 79.07549515651729 | 4.1414e-05 | deg |
M | 102.4885752329097 | 2.2871e-05 | deg |
tp | 2458843.590135928401 (2019-Dec-26.09013593) | 7.8986e-05 | TDB |
period | 1253.676819819011 3.43 | 7.6471e-06 2.094e-08 | d yr |
n | .2871553452284233 | 1.7516e-09 | deg/d |
Q | 2.512691177802032 | 1.0218e-08 | au |
|
| | Orbit Determination Parameters
Additional Information
|
[ hide covariance matrix ]
Orbital Elements at Epoch 2456981.5 (2014-Nov-20.0) TDB
Reference: JPL 18 (heliocentric ecliptic J2000)
Element | Value | Uncertainty (1-sigma) | Units |
e | .1034959174735811 | 3.4921e-08 | |
q | 2.040306623660211 | 7.862e-08 | au |
tp | 2457588.955292252164 (2016-Jul-19.45529225) | 7.8007e-05 | TDB |
node | 5.927000092097406 | 3.4651e-05 | deg |
peri | 78.92791532312349 | 4.1519e-05 | deg |
i | 6.338612929395082 | 4.6467e-06 | deg |
|
| | Orbit Determination Parameters
Additional Information
|
Orbit Covariance (6×6)
|
|
e |
q |
tp |
node |
peri |
i |
e |
1.219454696502705E-15 |
-2.73053792388593E-15 |
-1.723729554802266E-13 |
1.933736880060535E-15 |
-5.550180636946138E-14 |
-5.427540931136178E-16 |
q |
-2.73053792388593E-15 |
6.181113721669863E-15 |
5.228542026036659E-13 |
-4.330625041603162E-15 |
1.53919631734171E-13 |
1.42286578474851E-15 |
tp |
-1.723729554802266E-13 |
5.228542026036659E-13 |
6.085163751816433E-9 |
-1.098611213003527E-11 |
1.792392612632061E-9 |
1.951914234395369E-12 |
node |
1.933736880060535E-15 |
-4.330625041603162E-15 |
-1.098611213003527E-11 |
1.200690540577401E-9 |
-1.196051112170707E-9 |
9.166910310492399E-12 |
peri |
-5.550180636946138E-14 |
1.53919631734171E-13 |
1.792392612632061E-9 |
-1.196051112170707E-9 |
1.723806194311826E-9 |
-8.495276252650873E-12 |
i |
-5.427540931136178E-16 |
1.42286578474851E-15 |
1.951914234395369E-12 |
9.166910310492399E-12 |
-8.495276252650873E-12 |
2.15918253474054E-11 |
|
Physical Parameter Table
Parameter |
Symbol |
Value |
Units |
Sigma |
Reference |
Notes |
absolute magnitude |
H |
16.14 |
|
n/a |
E2021B55 |
|
|
101254 (1998 SK93) Discovered 1998-Sep-26 by LINEAR at Socorro |
Reference: 20051019/Numbers.arc | Last Updated: 2005-10-26 |
|
[ hide close-approach data ]
Close-Approach Data ...sorted by Date/Time (TDB)
|
Date/Time (TDB) |
Time Uncertainty (days_HH:MM) |
Body |
Nominal Distance (au) |
Minimum Distance (au) |
Maximum Distance (au) |
V-relative (km/s) |
V-infinity (km/s) |
JD (TDB) |
Time Uncertainty (minutes) |
Semi-major axis (km) |
Semi-minor axis (km) |
range-LOV angle (deg) |
N-sigma |
BP |
Orbit Ref. |
Reference |
Modified |
1909-May-17 21:57 |
< 00:01 |
Juno |
0.0371120888187807 |
0.0371055821428747 |
0.0371186001713316 |
7.29239995512328 |
7.29239991017013 |
2418444.414299971 |
0.588178055194813 |
736.972620545208 |
39.6015774772975 |
-64.0474787530563 |
126059.378293861 |
T |
18 |
CATAB v2.0f-lin.ifort 2020-Nov-12 20:01:36 |
2020-Nov-12 20:01 |
|
Alternate Designations
1998 SK93 = 2000 ED186 = 2003 AA75 |
|
|